{"data":{"norad_id":62557,"intl_designator":"2025-006D","name":"STARLINK-11478 [DTC]","alt_names":[],"object_type":"PAYLOAD","status":"ACTIVE","operator":null,"country":"US","launch_date":"2025-01-10","launch_site_code":"AFETR","launch_vehicle":null,"mission":null,"orbit_class":"UNKNOWN","rcs_meters":null,"size_class":null,"mass_kg":null,"dimensions":null,"purposes":["comms"],"wikipedia_slug":null,"has_3d_model":false,"image_url":null,"decayed_at":null,"tle_current":{"epoch":"2026-05-25T01:29:05.345088Z","epoch_age_seconds":73010,"freshness":"FRESH","line1":"1 62557U 25006D   26145.06186742  .00147949  00000+0  11344-2 0  9998","line2":"2 62557  43.0028  39.5605 0002106 271.7718  88.2908 15.70875142 78611","mean_motion":15.70875142,"eccentricity":0.0002106,"inclination_deg":43.0028,"raan_deg":39.5605,"arg_perigee_deg":271.7718,"mean_anomaly_deg":88.2908,"bstar":0.0011344,"rev_number":7861,"period_min":91.668647717388,"perigee_km":354.97632866874,"apogee_km":357.81291338751,"semimajor_km":6734.5316210281,"source":"CELESTRAK","updated_at":"2026-05-25T13:38:19.707037Z"}}}